This is the latest recevied weather packets stored in our database for station/object KJ5SC. If no packets are shown the sender has not sent any weather packets the latest 10 day(s).
| Time | Temp. | Humidity | Pressure | Rain* | Wind** | Luminosity | Snow |
|---|---|---|---|---|---|---|---|
| 1787679001 | 35.56° C | 54% | 1020.5 hPa | 0 mm | - | 750 W/m² | - |
| 1787678701 | 35° C | 54% | 1020.8 hPa | 0 mm | - | 736 W/m² | - |
| 1787678395 | 35° C | 55% | 1020.8 hPa | 0 mm | - | 741 W/m² | - |
| 1787678090 | 34.44° C | 55% | 1020.8 hPa | 0 mm | - | 728 W/m² | - |
| 1787677790 | 34.44° C | 56% | 1021 hPa | 0 mm | - | 720 W/m² | - |
| 1787677485 | 34.44° C | 54% | 1021 hPa | 0 mm | - | 718 W/m² | - |
| 1787676879 | 34.44° C | 56% | 1021.3 hPa | 0 mm | - | 708 W/m² | - |
| 1787676578 | 34.44° C | 57% | 1021.3 hPa | 0 mm | - | 719 W/m² | - |
| 1787676276 | 34.44° C | 57% | 1021.1 hPa | 0 mm | - | 697 W/m² | - |
| 1787675971 | 33.33° C | 59% | 1021.3 hPa | 0 mm | - | 689 W/m² | - |
| 1787675667 | 32.78° C | 60% | 1021.3 hPa | 0 mm | - | 668 W/m² | - |
| 1787675366 | 32.22° C | 64% | 1021.2 hPa | 0 mm | - | 654 W/m² | - |
| 1787675066 | 32.78° C | 64% | 1021.4 hPa | 0 mm | - | 133 W/m² | - |
| 1787674760 | 32.78° C | 63% | 1021.4 hPa | 0 mm | - | 673 W/m² | - |
| 1787674457 | 32.78° C | 65% | 1021.4 hPa | 0 mm | - | 197 W/m² | - |
| 1787674157 | 32.78° C | 64% | 1021.5 hPa | 0 mm | - | 389 W/m² | - |
| 1787673852 | 33.33° C | 64% | 1021.5 hPa | 0 mm | - | 157 W/m² | - |
| 1787673547 | 32.78° C | 64% | 1021.5 hPa | 0 mm | - | 650 W/m² | - |
| 1787673246 | 32.22° C | 65% | 1021.5 hPa | 0 mm | - | 629 W/m² | - |
| 1787672947 | 32.22° C | 66% | 1021.5 hPa | 0 mm | - | 154 W/m² | - |
| 1787672642 | 31.67° C | 71% | 1021.5 hPa | 0 mm | - | 582 W/m² | - |
| 1787672341 | 31.67° C | 71% | 1021.5 hPa | 0 mm | - | 153 W/m² | - |
| 1787672036 | 31.67° C | 70% | 1021 hPa | 0 mm | - | 136 W/m² | - |
| 1787671731 | 31.67° C | 69% | 1021 hPa | 0 mm | - | 169 W/m² | - |
| 1787671431 | 31.67° C | 69% | 1021 hPa | 0 mm | - | 569 W/m² | - |
* Rain latest hour (hover to see other rain measurements)
** Current wind speed in m/s (hover to see current wind gust speed)